Minneapolis-Saint Paul International Airport

Airport
ICAO code: 
KMSP
IATA Code: 
MSP
Summary
ICAO Region: 
NAM
Territory: 
Location: 
Minneapolis, Minnesota,
Serving: 
Hennepin County
Elevation: 
841 ft
Coordinates: 
Aerial View: 
44° 52' 57.659" N, 93° 13' 14.76" W
Airport CFIT: 
Altimeter Temperature Error Correction
Airport GND: 
Aircraft Ground De/Anti Icing
Airport LOS: 
Parallel Runway Operation
Metar
Observation
KMSP 221042Z 32017G29KT 8SM -SN FEW025 OVC031 M07/M12 A3009 RMK AO2 PK WND 26031/0955 P0000 T10721122
Station
Minneapolis, Minneapolis-St. Paul International Airport
Date/Time
2022-01-22 10:42:00
Wind direction
320°
Wind speed
17 kts
Lowest cloud amount
few clouds
Temperature
-7.2°C
Dew point
-12.2°C
Humidity
67%
Weather condition
light snow

Description

International airport serving Minneapolis St Paul, USA

Climatology

Humid continental climate (Köppen climate classification Dfa) - characterized by four seasons: cold, windy, snowy winters, mild springs, hot, humid summers, and crisp and relatively short autumns. Precipitation reaches its lowest in January and February and peaks in summer and latter half of spring.

Runways

Designator Length Width Surface Rops
12L/30R 2438 46 PEM Yes/Yes
17/35 2438 46 CON Yes/Yes
12R/30L 3048 61 PEM Yes/Yes
4/22 3355 46 CON Yes/Yes
Airport map: 
Aerial View: 

SKYbrary Partners:

Safety knowledge contributed by: